Wetbulb
39.64 41.34 40.60 40.49 40.72 41.48 41.21 41.52 42.65 43.03 43.57 44.20 45.22 46.41 48.64 52.00 54.33 55.83 56.65 56.47 55.53 55.23 55.31 54.81 53.89 53.72 53.89 54.46 54.45 52.90 49.20 47.86 39.37 36.69 37.86 38.50 38.64 38.04 38.98 40.40 41.25 41.40 41.47
39.68 40.69 40.27 40.36 40.94 41.63 41.18 42.02 42.45 42.47 43.68 44.39 45.28 47.13 52.54 54.71 55.62 55.66 55.35 55.62 54.77 54.16 54.43 54.44 53.52 53.54 53.78 54.37 53.76 50.64 48.10 46.17 41.30 35.75 35.81 36.20 37.15 37.95 38.45 36.43 38.60 39.59 39.54
39.31 39.96 39.78 39.90 39.70 41.04 41.56 41.63 42.12 42.52 43.24 44.49 46.66 51.98 53.93 54.75 54.47 54.63 54.58 53.98 53.74 53.63 54.03 53.96 53.18 53.48 52.61 52.29 50.15 47.62 45.36 43.74 41.44 37.28 34.81 35.88 36.04 37.05 35.52 36.04 34.69 34.55 38.26
39.13 39.36 39.21 39.29 40.19 41.02 40.87 40.97 41.83 42.57 42.75 44.29 45.90 48.29 50.30 51.29 51.34 50.96 50.31 49.16 48.81 49.66 51.35 52.29 52.64 52.42 51.11 49.55 47.64 45.80 44.20 41.66 39.43 37.06 34.61 34.15 34.20 34.53 34.81 33.16 31.59 29.66 31.54
39.17 38.25 38.19 38.52 40.49 40.26 40.17 40.41 41.28 41.83 42.42 43.56 44.44 44.21 44.25 44.62 46.88 47.80 46.90 46.21 45.81 44.60 43.89 44.54 45.72 43.06 42.54 45.70 47.20 45.29 43.34 40.92 38.76 35.43 33.51 33.75 32.58 32.05 32.53 33.06 32.48 32.10 32.59
38.56 37.59 37.82 39.61 39.18 38.98 39.56 39.76 40.01 40.70 41.20 40.96 40.32 40.22 40.43 40.74 40.76 42.39 44.61 44.51 43.84 43.46 42.18 41.83 42.79 40.87 40.58 40.30 40.97 41.07 42.80 41.92 39.79 38.16 35.49 34.02 31.42 30.03 32.87 32.88 32.33 31.86 31.11
37.46 36.58 37.35 37.24 37.06 37.59 38.28 39.23 38.93 39.86 40.45 39.51 39.22 39.29 38.93 39.45 39.56 39.56 39.31 41.48 40.71 40.62 40.67 40.03 38.89 38.51 39.13 40.63 39.33 38.95 37.10 39.24 40.67 41.30 38.48 37.21 34.89 34.17 33.57 32.62 32.19 32.23 32.27
37.60 37.30 37.32 37.15 36.01 35.48 35.61 38.00 37.95 38.64 38.88 39.59 38.95 38.73 38.46 38.60 38.68 37.93 36.87 37.65 36.44 36.15 37.10 37.97 37.58 37.26 37.95 38.36 38.47 36.72 35.30 34.21 34.92 36.02 38.05 36.95 37.38 36.54 35.59 34.68 33.70 32.19 30.63
36.15 35.53 35.87 35.68 35.29 35.41 35.40 35.62 36.01 37.09 37.15 37.04 37.59 37.74 37.18 37.38 38.30 38.35 37.76 36.04 34.08 33.07 33.69 34.27 34.46 33.43 35.74 37.95 36.02 34.83 32.57 31.71 33.62 35.92 36.99 36.86 38.08 38.34 36.45 34.13 32.34 32.07 31.15
35.57 34.31 34.89 35.47 35.42 35.11 34.64 34.26 33.97 33.96 33.68 34.03 34.03 34.06 32.26 35.13 37.82 37.84 37.02 34.65 33.08 32.12 32.21 32.49 33.68 34.07 35.14 35.14 31.64 29.74 27.23 27.78 26.67 25.70 28.72 31.16 32.55 34.01 37.24 34.70 33.07 32.28 32.11
33.62 35.05 34.72 35.17 34.98 35.08 34.53 34.27 33.95 33.89 33.94 33.36 32.37 30.95 31.63 31.92 35.09 38.11 37.44 34.11 32.97 31.92 31.00 30.64 31.40 35.19 35.06 35.16 32.94 29.36 28.64 28.15 28.51 24.45 24.19 24.73 27.44 28.29 26.25 27.94 30.30 31.66 32.27
31.89 30.66 32.15 32.72 33.44 33.86 33.51 32.30 33.19 33.50 33.33 32.54 32.50 29.98 29.66 30.56 33.93 36.19 36.88 36.60 34.88 31.04 30.30 29.65 31.16 35.06 34.86 34.26 31.22 32.83 32.89 29.18 26.90 26.55 23.58 21.19 19.88 23.83 28.35 27.91 27.69 24.70 26.49
30.39 28.00 25.27 27.26 29.38 31.44 32.34 31.42 31.65 32.48 32.80 32.49 32.26 29.10 28.39 28.96 29.43 35.08 35.27 34.97 33.89 30.64 30.81 33.73 33.76 34.14 32.76 31.31 32.40 31.88 25.62 24.68 22.23 22.69 21.16 20.61 20.52 19.37 17.99 20.25 26.56 20.41 19.17
30.20 27.66 26.81 28.25 28.50 29.02 31.11 31.43 30.70 28.70 28.31 28.01 28.67 27.57 26.19 27.03 27.50 28.18 30.22 30.40 31.08 30.68 30.27 29.99 31.40 31.70 31.81 30.42 29.96 29.90 26.71 23.62 23.25 21.83 21.09 20.72 19.87 19.96 20.21 21.93 21.49 21.32 23.68
28.93 26.59 26.36 27.63 28.02 28.83 29.16 29.80 30.11 27.15 32.97 31.88 32.16 31.71 30.28 25.76 26.10 31.83 31.70 31.05 29.30 30.57 29.70 24.70 24.78 23.63 24.53 24.86 24.40 24.46 24.30 24.94 24.53 27.24 21.42 21.13 20.35 20.12 20.38 19.92 19.77 19.44 20.90
28.80 28.04 27.13 26.48 25.63 26.60 28.87 27.55 32.58 32.21 33.80 34.05 33.95 28.56 26.24 32.64 34.15 34.62 33.67 33.30 33.00 33.13 24.18 22.73 24.75 26.51 25.50 23.93 24.50 24.05 25.28 26.51 26.70 25.92 25.32 26.29 25.10 24.26 24.01 23.81 22.75 22.86 22.70
30.63 29.28 29.55 28.24 26.51 24.82 23.61 25.32 24.23 25.89 33.39 33.71 34.01 34.07 32.69 32.95 34.17 35.02 34.03 33.70 34.71 34.10 31.81 31.48 30.74 30.58 30.33 30.07 29.66 28.49 27.05 25.49 21.98 22.10 23.60 25.12 27.45 27.57 27.22 27.21 26.93 25.78 25.58
29.45 28.46 30.36 29.91 29.19 28.11 26.31 25.06 26.01 24.82 22.55 20.12 30.55 31.47 34.13 34.49 34.77 35.30 34.69 34.00 32.15 32.58 31.76 30.70 30.09 30.12 29.43 27.96 23.36 18.60 18.29 19.73 18.53 19.07 20.75 21.20 23.59 24.05 25.82 25.85 26.25 25.88 25.73
30.13 30.57 30.22 30.30 29.83 29.29 29.74 27.63 26.83 25.82 24.41 24.55 21.76 31.13 31.85 35.17 35.34 34.89 34.58 29.57 30.82 30.30 30.05 29.02 28.89 28.22 28.04 27.89 25.41 21.14 21.25 22.47 22.11 20.94 21.06 19.13 20.14 20.42 19.36 20.38 21.60 22.56 23.75
25.47 28.08 29.69 30.02 29.44 29.25 28.05 26.89 26.27 26.63 26.61 28.71 29.40 30.35 31.68 30.88 28.71 27.39 28.25 28.88 27.37 25.92 24.75 23.27 22.11 21.44 21.55 21.27 19.83 18.76 18.75 18.50 18.03 18.80 18.22 19.69 20.91 21.09 20.95 21.11 20.59 21.71 21.65
27.55 28.86 28.99 28.33 28.53 28.87 28.47 27.72 28.05 29.43 30.81 31.12 30.96 31.96 31.02 26.55 24.32 23.83 23.64 23.60 22.98 21.52 20.89 20.45 20.00 18.60 17.34 16.69 15.66 14.12 12.91 13.89 13.36 14.37 14.98 15.35 13.97 13.53 14.24 14.45 14.62 14.09 14.79
27.88 28.32 28.93 29.39 29.50 29.30 29.31 30.08 31.14 31.26 28.55 27.24 26.85 27.38 27.09 23.84 22.62 21.45 21.00 20.84 21.16 21.27 21.99 19.42 16.08 14.62 13.74 12.49 10.07 9.60 8.59 9.88 10.01 8.33 7.10 7.72 7.82 7.31 8.90 9.85 8.02 5.26 9.65
28.90 28.84 29.57 30.00 30.75 30.94 31.21 32.16 29.17 25.76 23.87 23.11 22.75 22.30 22.07 21.22 20.61 19.96 19.44 19.65 19.07 17.85 17.34 17.39 17.61 13.49 12.58 11.36 7.56 4.91 5.66 4.42 1.41 -2.45 3.07 2.75 4.39 4.43 3.60 -0.80 -0.86 1.30 5.13
30.90 30.24 29.81 30.39 30.98 29.65 27.53 25.55 24.17 22.99 22.17 21.64 21.25 20.99 20.45 20.00 19.56 19.20 19.05 18.32 17.67 16.97 16.21 15.84 14.85 12.75 9.43 6.27 4.98 3.88 3.89 1.53 -1.77 0.04 -1.54 -0.80 -0.47 0.49 1.09 -6.64 -6.00 -5.90 -3.46
31.84 30.71 29.28 27.50 26.02 23.87 22.70 21.89 21.10 20.48 20.41 19.97 19.63 19.33 19.13 18.80 18.22 17.58 17.05 16.81 16.36 15.64 13.45 13.48 12.93 7.97 6.12 4.24 1.97 -0.62 1.93 1.64 0.45 -0.70 -0.88 -5.10 -5.19 -4.28 -9.30 -5.54 -9.92 -7.15 -8.18
27.32 25.98 24.71 23.86 22.72 22.09 21.23 20.26 19.62 19.32 18.65 18.49 18.35 17.76 17.04 16.55 16.20 15.71 15.49 14.97 14.68 14.05 12.30 11.16 9.09 7.15 6.01 4.48 3.42 5.29 8.42 7.06 2.03 -0.54 -4.92 -2.98 -1.29 -2.06 -6.16 -9.26 -8.07 -10.37 -9.79
MSLP
1016.16 1016.28 1016.55 1016.33 1016.20 1016.02 1015.97 1015.71 1015.40 1015.09 1014.71 1014.85 1014.52 1014.16 1014.01 1014.05 1014.18 1014.28 1014.18 1014.72 1015.30 1015.86 1016.21 1016.79 1017.39 1017.86 1018.38 1018.74 1019.14 1019.55 1020.17 1020.56 1022.95 1024.70 1025.48 1025.81 1025.68 1025.69 1025.76 1025.57 1025.57 1025.90 1025.98
1016.24 1016.48 1016.56 1016.39 1016.32 1016.00 1015.86 1015.72 1015.43 1014.90 1014.51 1014.22 1013.95 1013.84 1013.57 1013.65 1013.84 1014.08 1014.44 1014.91 1015.35 1015.85 1016.29 1016.70 1017.41 1017.97 1018.46 1018.72 1019.19 1019.78 1020.27 1020.77 1022.14 1024.21 1025.04 1025.72 1025.69 1025.73 1025.74 1025.90 1025.94 1026.19 1026.28
1016.35 1016.66 1016.62 1016.62 1016.60 1016.26 1016.14 1015.84 1015.44 1014.87 1014.47 1013.91 1013.59 1013.20 1013.06 1013.38 1013.80 1014.30 1014.73 1015.13 1015.45 1015.86 1016.30 1016.79 1017.39 1018.07 1018.57 1018.90 1019.48 1020.11 1020.65 1021.35 1021.82 1022.88 1024.80 1025.62 1025.79 1026.02 1026.28 1026.21 1026.55 1026.79 1026.82
1016.45 1016.83 1016.81 1016.89 1016.60 1016.53 1016.34 1015.90 1015.51 1015.03 1014.61 1014.27 1014.01 1013.79 1013.98 1014.23 1014.57 1014.88 1015.19 1015.59 1015.93 1016.22 1016.61 1016.98 1017.44 1017.97 1018.54 1019.20 1019.85 1020.47 1020.99 1021.56 1022.23 1023.09 1024.52 1025.29 1025.72 1025.97 1026.34 1026.61 1027.00 1027.15 1026.91
1016.61 1016.91 1017.01 1017.00 1016.91 1016.77 1016.29 1016.13 1015.77 1015.40 1015.02 1014.91 1014.71 1014.81 1014.90 1015.08 1015.30 1015.46 1015.88 1016.31 1016.66 1017.15 1017.52 1017.77 1018.19 1018.50 1018.88 1019.50 1020.04 1020.78 1021.43 1021.96 1022.78 1023.74 1024.51 1025.29 1025.42 1025.72 1025.88 1026.10 1026.63 1026.97 1026.92
1016.74 1017.03 1017.11 1017.08 1017.10 1017.14 1016.94 1016.64 1016.33 1016.13 1015.97 1015.80 1015.80 1015.98 1016.14 1016.44 1016.34 1016.40 1016.65 1017.13 1017.57 1017.85 1018.29 1018.75 1019.09 1019.34 1019.78 1020.30 1020.86 1021.22 1021.76 1022.43 1023.12 1023.53 1024.08 1024.47 1025.16 1025.45 1025.67 1025.91 1026.39 1026.89 1027.15
1017.09 1017.13 1017.29 1017.35 1017.35 1017.38 1017.30 1017.10 1017.09 1016.98 1016.91 1016.83 1017.01 1017.05 1017.32 1017.60 1017.39 1017.35 1017.50 1017.93 1018.54 1019.04 1019.45 1019.77 1020.20 1020.51 1020.75 1021.11 1021.73 1022.07 1022.59 1022.88 1023.03 1023.12 1023.42 1024.12 1024.48 1024.78 1025.16 1025.75 1025.91 1026.17 1026.43
1017.37 1017.45 1017.43 1017.56 1017.80 1018.00 1017.91 1017.85 1017.77 1017.68 1017.60 1017.66 1017.92 1018.04 1018.14 1018.63 1018.40 1018.34 1018.63 1019.10 1019.54 1020.08 1020.39 1020.72 1020.91 1021.36 1021.61 1021.75 1022.07 1022.73 1023.35 1023.66 1023.81 1023.65 1023.77 1024.00 1024.10 1024.17 1024.50 1025.03 1025.54 1026.15 1026.58
1017.40 1017.85 1017.75 1017.66 1017.81 1018.17 1018.45 1018.62 1018.69 1018.56 1018.58 1018.72 1018.89 1018.97 1018.92 1019.45 1019.35 1019.36 1019.39 1019.91 1020.49 1021.00 1021.24 1021.47 1021.68 1022.09 1022.32 1022.24 1022.50 1023.19 1023.82 1024.27 1024.17 1024.18 1024.03 1024.07 1024.19 1024.13 1024.49 1025.08 1025.57 1026.16 1026.42
1017.32 1017.98 1018.15 1018.18 1018.36 1018.62 1018.94 1019.14 1019.36 1019.43 1019.57 1019.72 1019.93 1020.04 1019.96 1020.07 1020.30 1020.06 1020.08 1020.43 1021.04 1021.66 1022.11 1022.29 1022.32 1022.56 1022.76 1022.75 1023.11 1023.69 1024.23 1024.67 1024.70 1024.58 1024.66 1024.61 1024.70 1024.55 1024.67 1024.97 1025.31 1025.78 1026.10
1017.15 1017.82 1018.36 1018.57 1018.82 1019.12 1019.34 1019.64 1019.83 1019.96 1020.00 1020.17 1020.42 1020.87 1020.94 1021.06 1021.07 1020.82 1020.84 1020.95 1021.50 1022.20 1022.81 1023.11 1023.13 1023.10 1023.21 1023.38 1023.79 1023.96 1024.43 1024.89 1025.00 1024.96 1025.07 1025.26 1025.40 1025.35 1025.56 1025.62 1025.62 1025.73 1025.87
1017.17 1018.04 1018.52 1018.81 1019.15 1019.53 1019.85 1020.22 1020.34 1020.51 1020.83 1021.26 1021.51 1021.81 1021.82 1021.81 1021.72 1021.69 1021.62 1021.65 1022.01 1022.41 1023.23 1023.62 1023.73 1023.73 1023.91 1024.30 1024.82 1024.93 1024.94 1025.20 1025.39 1025.60 1025.87 1026.23 1026.19 1026.14 1025.92 1025.89 1025.84 1025.99 1025.93
1017.36 1018.31 1018.95 1019.21 1019.44 1019.83 1020.10 1020.54 1020.95 1021.24 1021.58 1021.86 1022.19 1022.59 1022.94 1022.88 1022.69 1022.51 1022.43 1022.61 1023.01 1023.52 1023.96 1024.08 1024.17 1024.22 1024.68 1025.19 1025.31 1025.33 1025.71 1025.87 1026.10 1026.46 1026.69 1026.76 1026.64 1026.72 1026.62 1026.38 1025.90 1025.92 1025.83
1017.30 1018.35 1018.99 1019.46 1019.90 1020.16 1020.38 1020.75 1021.01 1021.23 1021.56 1021.79 1022.19 1022.63 1022.94 1023.16 1023.13 1023.30 1023.36 1023.40 1023.71 1023.93 1024.49 1024.94 1025.16 1025.50 1025.74 1026.00 1025.99 1025.95 1026.03 1025.94 1025.97 1026.38 1026.73 1026.70 1026.80 1026.69 1026.73 1026.45 1026.31 1026.09 1025.74
1017.72 1018.72 1019.28 1019.61 1019.90 1020.36 1020.66 1020.85 1021.06 1021.25 1021.16 1021.54 1022.01 1022.24 1022.50 1022.82 1022.96 1022.87 1023.18 1023.62 1024.03 1024.49 1024.87 1025.08 1025.44 1025.87 1026.08 1026.20 1026.32 1026.45 1026.56 1026.56 1026.74 1026.77 1026.62 1026.58 1026.50 1026.58 1026.81 1026.91 1026.73 1026.50 1026.43
1017.62 1018.38 1019.64 1020.25 1020.40 1020.73 1021.05 1021.50 1021.64 1021.88 1021.88 1021.84 1022.03 1022.32 1022.73 1023.02 1023.32 1023.50 1023.77 1024.06 1024.41 1024.60 1024.92 1025.45 1025.76 1025.93 1026.06 1026.38 1026.62 1026.85 1026.83 1027.03 1027.11 1026.95 1027.03 1026.90 1026.71 1026.51 1026.51 1026.50 1026.58 1026.55 1026.40
1016.61 1017.85 1018.28 1019.44 1020.54 1021.03 1021.35 1021.63 1022.16 1022.51 1022.34 1022.31 1022.30 1022.53 1022.92 1023.17 1023.44 1023.72 1024.19 1024.30 1024.37 1024.41 1024.90 1025.67 1026.12 1026.36 1026.53 1026.73 1026.99 1027.29 1027.71 1027.70 1027.55 1027.54 1027.29 1026.98 1026.79 1026.50 1026.21 1026.07 1026.01 1026.12 1026.03
1015.95 1017.07 1017.88 1018.24 1019.12 1020.07 1020.85 1021.46 1021.92 1022.46 1022.76 1022.80 1022.81 1022.78 1022.84 1023.24 1023.50 1023.87 1024.28 1024.66 1024.96 1025.25 1025.61 1026.04 1026.54 1026.84 1027.16 1027.53 1027.76 1027.97 1028.06 1028.16 1028.02 1028.08 1027.98 1027.69 1027.31 1027.05 1026.70 1026.67 1026.55 1026.23 1026.03
1016.40 1016.38 1017.46 1018.10 1018.38 1019.40 1020.09 1020.78 1021.38 1022.06 1022.66 1023.02 1023.15 1023.34 1023.54 1023.50 1023.74 1024.18 1024.54 1025.14 1025.47 1026.01 1026.50 1026.92 1027.47 1027.84 1027.91 1027.98 1028.30 1028.40 1028.52 1028.60 1028.55 1028.68 1028.49 1028.39 1027.97 1027.53 1027.43 1027.19 1026.99 1026.79 1026.62
1016.41 1016.41 1016.61 1018.03 1018.80 1019.22 1019.90 1020.74 1021.47 1022.15 1022.79 1023.20 1023.44 1023.81 1024.07 1024.30 1024.88 1025.41 1025.78 1026.08 1026.50 1027.06 1027.60 1027.99 1028.62 1029.13 1029.03 1029.29 1029.40 1029.44 1029.47 1029.33 1029.30 1029.26 1029.53 1029.36 1029.07 1028.65 1028.23 1027.87 1027.62 1027.40 1027.21
1015.70 1016.74 1016.51 1017.25 1018.42 1019.33 1019.91 1020.63 1021.33 1022.06 1022.71 1023.17 1023.55 1023.92 1024.24 1024.78 1025.64 1026.30 1026.94 1027.57 1028.02 1028.58 1029.01 1029.12 1029.49 1029.97 1030.29 1030.30 1030.54 1030.85 1030.95 1030.71 1030.72 1030.64 1030.61 1030.38 1030.27 1030.01 1029.57 1029.28 1029.06 1028.74 1028.47
1015.45 1016.31 1016.57 1017.18 1017.85 1018.85 1019.83 1020.50 1021.12 1021.88 1022.83 1023.42 1024.13 1024.74 1025.09 1025.84 1026.64 1027.09 1027.80 1028.29 1028.91 1029.51 1030.00 1030.36 1030.58 1030.93 1031.25 1031.53 1031.95 1032.08 1031.95 1032.15 1032.02 1031.88 1031.64 1031.40 1031.31 1031.09 1030.86 1030.60 1030.19 1029.91 1029.67
1015.31 1016.32 1016.90 1017.30 1017.89 1018.64 1019.66 1020.47 1021.19 1022.29 1023.28 1024.00 1024.59 1025.17 1025.93 1026.51 1027.27 1027.97 1028.46 1029.07 1029.62 1030.28 1030.59 1030.97 1031.34 1031.90 1032.12 1032.32 1032.61 1032.79 1032.76 1032.95 1033.08 1033.04 1032.59 1032.48 1032.41 1032.34 1032.08 1031.78 1031.46 1031.23 1031.10
1014.96 1015.93 1016.87 1017.44 1018.03 1018.94 1020.01 1021.03 1021.52 1022.52 1023.63 1024.58 1025.36 1026.00 1026.59 1027.29 1027.81 1028.43 1029.09 1030.04 1030.53 1031.03 1031.27 1031.82 1032.07 1032.34 1032.72 1033.09 1033.28 1033.12 1033.20 1033.13 1033.09 1033.06 1033.08 1033.21 1033.13 1033.20 1033.08 1032.86 1032.62 1032.40 1032.10
1015.01 1015.97 1016.77 1017.39 1018.38 1019.51 1020.54 1021.52 1022.30 1023.33 1024.18 1025.00 1025.86 1026.70 1027.45 1028.04 1028.58 1029.41 1029.85 1030.69 1031.35 1031.56 1032.20 1032.51 1032.95 1033.32 1033.56 1033.69 1033.85 1033.92 1033.76 1033.53 1033.47 1033.65 1033.43 1033.56 1033.84 1033.80 1034.15 1034.03 1033.73 1033.40 1033.13
1015.54 1016.56 1017.34 1018.25 1019.08 1019.98 1020.90 1021.84 1022.71 1023.91 1024.93 1026.00 1026.66 1027.23 1028.07 1028.66 1029.06 1029.84 1030.40 1031.12 1031.75 1032.31 1032.77 1033.17 1033.52 1033.66 1033.85 1033.95 1034.04 1034.02 1033.92 1033.99 1033.88 1034.06 1034.09 1034.06 1034.04 1034.23 1034.56 1034.95 1034.67 1034.31 1034.01
Wind_Speed
1 4 3 3 4 4 3 5 6 6 6 5 5 5 6 7 7 7 7 9 7 7 6 9 7 6 4 3 3 3 3 4 5 2 2 1 2 3 2 2 1 4 3
1 3 3 3 4 4 5 6 6 7 6 5 4 6 7 6 6 7 7 7 8 7 7 8 8 5 5 4 3 4 4 4 4 4 2 1 1 3 3 2 1 2 3
4 4 2 4 4 6 6 6 6 6 5 5 3 3 6 7 7 6 6 5 6 6 7 8 8 8 5 4 4 5 4 3 3 5 4 1 1 1 1 2 1 1 0
4 4 3 4 4 5 5 6 6 6 6 6 6 7 6 6 7 7 6 6 6 5 5 6 6 6 7 6 5 6 5 5 5 6 3 3 2 2 2 2 1 0 1
3 4 4 3 4 5 6 7 7 8 8 8 9 10 10 9 4 7 7 6 7 8 7 7 6 6 10 7 5 5 5 4 5 4 3 2 2 2 4 3 3 1 2
4 4 4 4 5 5 5 7 8 9 10 10 12 11 11 8 12 13 9 8 8 8 9 8 8 10 12 14 14 14 7 5 3 3 3 2 2 2 2 2 3 3 3
4 3 5 4 6 6 6 7 8 8 9 12 11 11 12 10 17 18 15 10 9 9 9 8 8 7 8 10 14 15 13 13 9 2 3 2 3 5 5 4 3 3 2
5 4 4 5 6 5 5 7 7 6 8 8 10 10 11 9 16 18 16 11 11 10 8 8 9 8 6 7 8 7 6 6 6 4 4 3 0 4 5 5 5 3 1
7 5 4 4 6 6 7 6 5 6 8 8 7 9 11 9 12 12 11 9 10 9 8 8 8 8 9 9 7 7 6 5 6 8 8 6 4 6 6 5 2 2 2
7 7 5 5 6 6 6 6 4 5 6 5 8 7 7 9 10 11 9 6 8 7 7 8 13 9 12 11 7 5 5 2 3 4 4 5 6 4 5 2 3 3 2
8 7 6 5 6 5 5 4 4 5 6 7 8 6 7 7 8 12 10 5 6 6 5 5 4 12 12 13 10 5 4 3 3 3 3 3 4 4 3 3 4 1 2
8 7 5 5 4 5 6 3 5 5 6 5 5 5 5 6 9 12 13 11 8 7 6 3 5 14 15 14 9 12 10 5 4 4 4 3 3 3 3 3 3 2 1
9 7 5 5 5 4 6 5 4 4 3 4 4 4 3 3 4 12 15 15 14 8 4 10 13 13 12 10 12 12 7 4 3 4 3 2 1 2 3 3 3 3 4
10 8 6 6 6 5 4 3 4 4 4 3 4 4 3 2 2 2 4 5 10 8 9 7 9 9 10 7 5 5 3 3 3 3 1 2 1 1 2 1 2 3 2
7 5 3 3 4 5 4 3 5 1 3 4 3 4 4 3 1 4 5 5 4 7 7 3 3 3 3 3 3 4 3 3 3 2 2 2 2 2 2 1 1 2 2
9 7 4 2 2 3 4 4 12 9 10 12 10 7 3 10 8 10 12 13 11 7 4 4 4 4 4 3 3 2 2 3 3 2 2 2 1 1 1 1 1 1 2
11 9 8 8 4 3 2 4 6 4 9 9 10 11 10 9 10 11 12 12 10 7 6 5 5 4 4 5 5 5 5 4 3 2 2 2 2 1 2 2 1 1 2
10 9 8 8 8 6 5 4 5 5 4 2 6 6 9 10 11 11 12 7 5 6 5 5 5 5 5 6 4 3 3 3 3 3 3 3 3 3 5 6 6 6 5
7 8 6 5 6 6 6 5 5 5 5 5 3 7 6 14 14 12 9 4 6 6 6 7 6 6 5 6 5 4 5 6 6 5 4 3 3 3 3 3 4 6 6
4 8 9 6 5 6 6 6 5 6 6 5 6 6 5 6 7 7 6 6 7 7 7 8 7 6 7 6 6 5 5 7 7 6 5 6 7 7 7 7 7 7 7
6 6 10 8 7 6 6 6 6 7 6 6 6 5 11 8 7 7 7 7 7 8 7 7 7 7 7 7 7 6 6 6 7 7 6 7 7 7 6 5 6 6 6
7 7 7 8 8 8 7 7 8 8 8 8 8 10 18 9 8 8 8 8 8 7 6 8 8 8 7 7 5 6 6 6 7 5 5 5 5 5 5 5 6 4 5
7 7 7 7 8 11 9 9 9 9 8 8 8 8 8 8 8 8 9 8 8 7 7 7 8 8 7 7 5 4 6 5 3 3 5 5 6 6 5 4 4 4 6
9 9 9 8 8 8 8 8 9 12 10 9 9 8 9 9 9 10 9 9 9 8 8 8 8 9 7 5 5 5 5 4 4 4 5 5 5 6 5 4 4 4 3
9 9 9 10 10 10 10 10 10 10 9 9 9 9 9 9 10 9 9 8 8 9 9 8 7 8 9 9 8 7 8 10 8 6 5 5 7 7 4 4 3 3 4
10 10 10 9 10 10 10 11 11 10 10 9 9 9 9 9 10 9 9 9 9 8 8 6 7 9 8 6 6 6 10 12 9 9 5 6 8 7 5 5 7 3 4
Wind_Direction
264 72 40 336 342 329 307 315 325 316 303 299 280 270 235 198 185 184 153 145 144 152 155 162 150 142 151 160 142 115 117 95 110 86 106 157 131 143 161 148 137 143 118
63 76 59 348 337 327 360 338 323 305 308 291 271 246 192 181 156 125 124 141 150 148 149 153 153 137 139 143 137 118 103 90 120 139 120 145 170 185 173 147 84 33 125
89 84 52 17 10 357 343 329 328 323 335 328 315 139 95 104 109 112 117 125 134 142 150 148 148 154 145 128 120 117 96 102 103 126 118 144 106 148 78 52 121 306 3
104 93 68 33 1 4 348 342 352 356 12 14 26 59 67 83 86 88 97 92 91 87 114 127 135 142 136 133 122 121 124 102 98 100 101 118 150 135 108 127 318 326 229
120 92 79 59 28 10 9 8 10 27 29 43 60 56 49 49 54 98 88 83 91 81 59 58 62 90 98 102 127 123 115 94 103 111 108 152 150 148 192 173 178 172 302
114 100 94 64 53 30 31 38 29 37 47 57 56 61 58 50 53 72 92 86 79 85 86 68 60 69 68 76 82 78 85 113 136 134 134 131 180 192 161 154 127 142 243
126 100 85 76 57 51 34 45 46 51 64 63 62 63 62 59 64 71 73 76 72 67 68 74 68 55 71 82 74 72 61 54 55 128 118 161 170 187 150 163 180 164 217
133 136 127 105 93 73 68 62 47 48 61 70 71 67 71 63 76 76 79 82 78 68 66 76 82 69 64 95 91 84 76 60 41 42 69 98 79 167 162 173 168 135 74
137 148 134 109 91 82 72 69 50 66 65 61 58 71 80 66 62 74 84 83 78 70 67 64 74 68 45 69 84 83 62 54 36 47 57 56 4 157 151 121 134 125 221
149 151 143 124 111 102 92 75 64 61 72 67 67 50 53 68 62 80 90 100 91 82 62 65 72 74 61 66 84 98 85 37 31 18 24 37 34 35 173 17 147 173 157
141 137 137 132 122 113 102 90 93 89 91 82 81 59 64 57 51 67 76 81 105 98 90 75 59 71 67 67 70 71 79 138 36 70 56 46 41 38 37 44 20 14 195
134 131 128 121 118 113 107 71 73 74 76 63 72 52 34 35 48 60 65 80 85 94 84 68 73 73 67 68 61 56 52 51 52 48 51 34 40 38 17 5 340 323 304
133 136 126 116 112 117 122 120 101 92 100 99 93 86 63 36 40 63 70 78 83 87 91 88 75 69 78 67 62 60 51 43 45 50 43 27 42 251 299 321 312 269 278
139 143 140 134 128 124 122 119 118 125 120 108 113 120 126 105 82 57 78 78 71 69 65 65 70 74 73 76 63 61 58 60 93 106 98 240 250 1 356 14 345 330 332
117 103 114 125 135 125 94 116 117 58 137 136 132 130 120 86 17 120 116 101 95 107 105 72 59 57 55 43 33 34 25 27 31 17 29 17 19 21 339 356 357 334 8
135 131 117 62 76 88 105 87 57 81 73 80 94 108 40 104 100 104 103 110 114 128 61 73 66 71 75 66 55 44 53 40 25 15 359 354 4 10 322 281 209 235 283
149 153 148 137 130 126 112 133 122 59 91 97 106 110 118 124 110 114 114 108 99 105 93 82 77 67 65 57 50 45 30 358 349 345 340 347 328 311 342 344 304 258 304
145 150 161 154 151 147 145 147 135 149 141 75 57 107 120 128 118 118 126 103 80 66 75 84 80 72 68 68 55 39 27 14 19 4 1 352 359 354 9 5 354 349 343
159 150 149 152 140 142 140 136 130 125 113 120 82 77 94 108 104 98 92 87 99 92 83 75 64 58 58 67 54 44 45 37 29 11 8 354 352 7 4 360 354 354 346
144 147 134 136 137 135 133 132 121 120 124 124 117 119 116 92 81 65 58 66 71 70 68 69 61 50 54 49 42 35 38 38 29 29 14 13 11 16 14 9 6 1 3
136 156 142 130 139 143 138 133 124 124 126 119 121 124 113 104 98 86 75 62 68 68 72 74 68 57 43 42 42 37 31 40 28 22 22 20 14 14 6 16 15 12 8
145 154 148 144 139 138 137 136 133 125 116 109 100 103 102 92 93 91 87 84 83 81 78 81 75 65 56 52 41 38 43 34 26 12 12 16 13 11 8 19 16 5 14
137 142 136 134 136 132 132 135 124 118 112 115 115 109 102 104 102 98 95 90 85 76 72 74 84 71 59 53 43 48 57 42 9 14 34 29 29 21 14 16 13 13 10
133 136 134 129 128 119 118 118 116 115 120 115 110 110 112 112 109 106 101 96 92 85 80 78 83 86 72 59 45 44 46 38 31 40 52 52 45 24 24 18 11 355 344
127 127 125 124 123 118 116 114 113 113 115 115 117 115 112 108 102 98 96 97 95 92 85 86 84 82 76 76 78 69 57 54 52 33 42 55 58 39 28 36 6 350 9
110 116 117 118 119 122 125 125 118 119 117 115 115 113 116 113 108 109 108 106 104 97 94 89 89 81 74 65 65 84 87 70 58 46 46 58 56 41 28 24 17 11 356